START_TIME,STEP,MOV.,M34,t_acc.,L5,t_acc.,L18,t_acc.,L14,t_acc.
1979-08-06 18:00:23.200 ,0,1,0.,12.0,0.,12.0,0.,12.0,0.,12.0
1979-08-06 18:00:35.200 ,0,1,0.,12.0,0.,12.0,0.,12.0,0.,12.0
1979-08-06 18:00:47.200 ,3,1,0.,12.0,0.,12.0,0.,12.0,0.,12.0
1979-08-06 18:00:59.200 ,3,1,0.,12.0,0.,12.0,0.,12.0,0.,12.0
1979-08-06 18:01:11.200 ,7,1,0.,12.0,0.,12.0,0.,12.0,0.,12.0
1979-08-06 18:01:23.200 ,7,1,0.,12.0,0.,12.0,0.,12.0,0.,12.0
1979-08-06 18:01:35.200 ,4,1,0.,12.0,0.,12.0,0.,12.0,0.,12.0
1979-08-06 18:01:47.200 ,4,1,0.,12.0,0.,12.0,0.,12.0,0.,12.0
1979-08-06 18:01:59.200 ,0,1,0.,12.0,0.,12.0,0.,12.0,0.,12.0
1979-08-06 18:02:11.200 ,0,1,0.,12.0,0.,12.0,0.,12.0,0.,12.0
1979-08-06 18:02:23.200 ,3,1,0.,12.0,0.,12.0,0.,12.0,0.,12.0
1979-08-06 18:02:35.200 ,3,1,0.,12.0,0.,12.0,0.,12.0,0.,12.0
1979-08-06 18:02:47.200 ,7,1,0.,12.0,0.,12.0,0.,12.0,0.,12.0
1979-08-06 18:02:59.200 ,7,1,0.,12.0,0.,12.0,0.,12.0,0.,12.0
1979-08-06 18:03:11.200 ,4,1,0.,12.0,0.,12.0,0.,12.0,0.,12.0
1979-08-06 18:03:23.200 ,4,1,0.,12.0,0.,12.0,0.,12.0,0.,12.0
1979-08-06 18:03:35.200 ,0,1,0.,12.0,0.,12.0,0.,12.0,0.,12.0
1979-08-06 18:03:47.200 ,0,1,0.,12.0,0.,12.0,0.,12.0,0.,12.0
1979-08-06 18:03:59.200 ,3,1,0.,12.0,0.,12.0,0.,12.0,0.,12.0
1979-08-06 18:04:11.200 ,3,1,0.,12.0,0.,12.0,0.,12.0,0.,12.0
1979-08-06 18:04:23.200 ,7,1,0.,12.0,0.,12.0,0.,12.0,0.,12.0
1979-08-06 18:04:35.200 ,7,1,0.,12.0,0.,12.0,0.,12.0,0.,12.0
1979-08-06 18:04:47.200 ,4,1,0.,12.0,0.,12.0,0.,12.0,0.,12.0
1979-08-06 18:04:59.200 ,4,1,0.,12.0,0.,12.0,0.,12.0,0.,12.0
1979-08-06 18:05:11.200 ,0,1,0.,12.0,0.,12.0,0.,12.0,0.,12.0
1979-08-06 18:05:23.200 ,0,1,0.,12.0,0.,12.0,0.,12.0,0.,12.0
1979-08-06 18:05:35.200 ,0,0,0.,12.0,0.,12.0,0.,12.0,0.,12.0
1979-08-06 18:05:47.200 ,0,0,0.,12.0,0.,12.0,0.,12.0,0.,12.0
1979-08-06 18:05:59.200 ,0,0,0.,12.0,0.,12.0,0.,12.0,0.,12.0
1979-08-06 18:06:11.200 ,0,0,0.,12.0,0.,12.0,0.,12.0,0.,12.0
1979-08-06 18:06:23.200 ,5,1,0.,12.0,0.,12.0,0.,12.0,0.,12.0
1979-08-06 18:06:35.200 ,5,1,0.,12.0,0.,12.0,0.,12.0,0.,12.0
1979-08-06 18:06:47.200 ,5,0,0.,12.0,0.,12.0,0.,12.0,0.,12.0
1979-08-06 18:06:59.200 ,5,0,0.,12.0,0.,12.0,0.,12.0,0.,12.0
1979-08-06 18:07:11.200 ,4,1,0.,12.0,0.,12.0,0.,12.0,0.,12.0
1979-08-06 18:07:23.200 ,4,1,0.,12.0,0.,12.0,0.,12.0,0.,12.0
1979-08-06 18:07:35.200 ,4,0,0.,12.0,0.,12.0,0.,12.0,0.,12.0
1979-08-06 18:07:47.200 ,4,0,0.,12.0,0.,12.0,0.,12.0,0.,12.0
1979-08-06 18:07:59.200 ,3,1,0.,12.0,0.,12.0,0.,12.0,0.,12.0
1979-08-06 18:08:11.200 ,3,1,0.,12.0,0.,12.0,0.,12.0,0.,12.0
1979-08-06 18:08:23.200 ,3,0,0.,12.0,0.,12.0,0.,12.0,0.,12.0
1979-08-06 18:08:35.200 ,3,0,0.,12.0,0.,12.0,0.,12.0,0.,12.0
1979-08-06 18:08:47.200 ,2,1,0.,12.0,0.,12.0,0.,12.0,0.,12.0
1979-08-06 18:08:59.200 ,2,1,0.,12.0,0.,12.0,0.,12.0,0.,12.0
1979-08-06 18:09:11.200 ,2,0,0.,12.0,0.,12.0,0.,12.0,0.,12.0
1979-08-06 18:09:23.200 ,2,0,0.,12.0,0.,12.0,0.,12.0,0.,12.0
1979-08-06 18:09:35.200 ,1,1,0.,12.0,0.,12.0,0.,12.0,0.,12.0
1979-08-06 18:09:47.200 ,1,1,0.,12.0,0.,12.0,0.,12.0,0.,12.0
1979-08-06 18:09:59.200 ,1,0,0.,12.0,0.,12.0,0.,12.0,0.,12.0
1979-08-06 18:10:11.200 ,1,0,0.,12.0,0.,12.0,0.,12.0,0.,12.0
1979-08-06 18:10:23.200 ,0,1,0.,12.0,0.,12.0,0.,12.0,0.,12.0
1979-08-06 18:10:35.200 ,0,1,0.,12.0,0.,12.0,0.,12.0,0.,12.0
1979-08-06 18:10:47.200 ,0,0,0.,12.0,0.,12.0,0.,12.0,0.,12.0
1979-08-06 18:10:59.200 ,0,0,0.,12.0,0.,12.0,0.,12.0,0.,12.0
1979-08-06 18:11:11.200 ,0,0,0.,12.0,0.,12.0,0.,12.0,0.,12.0
1979-08-06 18:11:23.200 ,0,0,,0,,0,,0,,0
1979-08-06 18:11:35.200 ,0,0,,0,,0,,0,,0
1979-08-06 18:11:47.200 ,0,0,,0,,0,,0,,0
1979-08-06 18:11:35.200 ,0,0,0.,12.0,0.,12.0,0.,12.0,0.,12.0
1979-08-06 18:11:47.200 ,0,0,0.,12.0,0.,12.0,0.,12.0,0.,12.0
1979-08-06 18:11:59.200 ,1,1,0.,12.0,0.,12.0,0.,12.0,0.,12.0
1979-08-06 18:12:11.200 ,1,1,0.,12.0,0.,12.0,0.,12.0,0.,12.0
1979-08-06 18:12:23.200 ,1,0,0.,12.0,0.,12.0,0.,12.0,0.,12.0
1979-08-06 18:12:35.200 ,1,0,0.,12.0,0.,12.0,0.,12.0,0.,12.0
1979-08-06 18:12:47.200 ,2,1,0.,12.0,0.,12.0,0.,12.0,0.,12.0
1979-08-06 18:12:59.200 ,2,1,0.,12.0,0.,12.0,0.,12.0,0.,12.0
1979-08-06 18:13:11.200 ,2,0,0.,12.0,0.,12.0,0.,12.0,0.,12.0
1979-08-06 18:13:23.200 ,2,0,0.,12.0,0.,12.0,0.,12.0,0.,12.0
1979-08-06 18:13:35.200 ,3,1,0.,12.0,0.,12.0,0.,12.0,0.,12.0
1979-08-06 18:13:47.200 ,3,1,0.,12.0,0.,12.0,0.,12.0,0.,12.0
1979-08-06 18:13:59.200 ,3,0,0.,12.0,0.,12.0,0.,12.0,0.,12.0
1979-08-06 18:14:11.200 ,3,0,0.,12.0,0.,12.0,0.,12.0,0.,12.0
1979-08-06 18:14:23.200 ,4,1,0.,12.0,0.,12.0,0.,12.0,0.,12.0
1979-08-06 18:14:35.200 ,4,1,0.,12.0,0.,12.0,0.,12.0,0.,12.0
1979-08-06 18:14:47.200 ,4,0,0.,12.0,0.,12.0,0.,12.0,0.,12.0
1979-08-06 18:14:59.200 ,4,0,0.,12.0,0.,12.0,0.,12.0,0.,12.0
1979-08-06 18:15:11.200 ,5,1,0.,12.0,0.,12.0,0.,12.0,0.,12.0
1979-08-06 18:15:23.200 ,5,1,0.,12.0,0.,12.0,0.,12.0,0.,12.0
1979-08-06 18:15:35.200 ,5,0,0.,12.0,0.,12.0,0.,12.0,0.,12.0
1979-08-06 18:15:47.200 ,5,0,0.,12.0,0.,12.0,0.,12.0,0.,12.0
1979-08-06 18:15:59.200 ,6,1,0.,12.0,0.,12.0,0.,12.0,0.,12.0
1979-08-06 18:16:11.200 ,6,1,0.,12.0,0.,12.0,0.,12.0,0.,12.0
1979-08-06 18:16:23.200 ,6,0,0.,12.0,0.,12.0,0.,12.0,0.,12.0
1979-08-06 18:16:35.200 ,6,0,0.,12.0,0.,12.0,0.,12.0,0.,12.0
1979-08-06 18:16:47.200 ,7,1,0.,12.0,0.,12.0,0.,12.0,0.,12.0
1979-08-06 18:16:59.200 ,7,1,0.,12.0,0.,12.0,0.,12.0,0.,12.0
1979-08-06 18:17:11.200 ,7,0,0.,12.0,0.,12.0,0.,12.0,0.,12.0
1979-08-06 18:17:23.200 ,7,0,0.,12.0,0.,12.0,0.,12.0,0.,12.0
1979-08-06 18:17:35.200 ,7,1,0.,12.0,0.,12.0,0.,12.0,0.,12.0
1979-08-06 18:17:47.200 ,7,1,0.,12.0,0.,12.0,0.,12.0,0.,12.0
1979-08-06 18:17:59.200 ,7,0,0.,12.0,0.,12.0,0.,12.0,0.,12.0
1979-08-06 18:18:11.200 ,7,0,0.,12.0,0.,12.0,0.,12.0,0.,12.0
1979-08-06 18:18:23.200 ,6,1,0.,12.0,0.,12.0,0.,12.0,0.,12.0
1979-08-06 18:18:35.200 ,6,1,0.,12.0,0.,12.0,0.,12.0,0.,12.0
1979-08-06 18:18:47.200 ,6,0,0.,12.0,0.,12.0,0.,12.0,0.,12.0
1979-08-06 18:18:59.200 ,6,0,0.,12.0,0.,12.0,0.,12.0,0.,12.0
1979-08-06 18:19:11.200 ,5,1,0.,12.0,0.,12.0,0.,12.0,0.,12.0
1979-08-06 18:19:23.200 ,5,1,0.,12.0,0.,12.0,0.,12.0,0.,12.0
1979-08-06 18:19:35.200 ,5,0,0.,12.0,0.,12.0,0.,12.0,0.,12.0
1979-08-06 18:19:47.200 ,5,0,0.,12.0,0.,12.0,0.,12.0,0.,12.0
1979-08-06 18:19:59.200 ,4,1,0.,12.0,0.,12.0,0.,12.0,0.,12.0
1979-08-06 18:20:11.200 ,4,1,0.,12.0,0.,12.0,0.,12.0,0.,12.0
1979-08-06 18:20:23.200 ,4,0,0.,12.0,0.,12.0,0.,12.0,0.,12.0
1979-08-06 18:20:35.200 ,4,0,0.,12.0,0.,12.0,0.,12.0,0.,12.0
1979-08-06 18:20:47.200 ,3,1,0.,12.0,0.,12.0,0.,12.0,0.,12.0
1979-08-06 18:20:59.200 ,3,1,0.,12.0,0.,12.0,0.,12.0,0.,12.0
1979-08-06 18:21:11.200 ,3,0,0.,12.0,0.,12.0,0.,12.0,0.,12.0
1979-08-06 18:21:23.200 ,3,0,0.,12.0,0.,12.0,0.,12.0,0.,12.0
1979-08-06 18:21:35.200 ,2,1,0.,12.0,0.,12.0,0.,12.0,0.,12.0
1979-08-06 18:21:47.200 ,2,1,0.,12.0,0.,12.0,0.,12.0,0.,12.0
1979-08-06 18:21:59.200 ,2,0,0.,12.0,0.,12.0,0.,12.0,0.,12.0
1979-08-06 18:22:11.200 ,2,0,0.,12.0,0.,12.0,0.,12.0,0.,12.0
1979-08-06 18:22:23.200 ,1,1,0.,12.0,0.,12.0,0.,12.0,0.,12.0
1979-08-06 18:22:35.200 ,1,1,0.,12.0,0.,12.0,0.,12.0,0.,12.0
1979-08-06 18:22:47.200 ,1,0,0.,12.0,0.,12.0,0.,12.0,0.,12.0
1979-08-06 18:22:59.200 ,1,0,0.,12.0,0.,12.0,0.,12.0,0.,12.0
1979-08-06 18:23:11.200 ,0,1,0.,12.0,0.,12.0,0.,12.0,0.,12.0
1979-08-06 18:23:23.200 ,0,1,0.,12.0,0.,12.0,0.,12.0,0.,12.0
1979-08-06 18:23:35.200 ,0,0,0.,12.0,0.,12.0,0.,12.0,0.,12.0
1979-08-06 18:23:47.200 ,0,0,0.,12.0,0.,12.0,0.,12.0,0.,12.0
1979-08-06 18:23:59.200 ,0,1,0.,12.0,0.,12.0,0.,12.0,0.,12.0
1979-08-06 18:24:11.200 ,0,1,0.,12.0,0.,12.0,0.,12.0,0.,12.0
1979-08-06 18:24:23.200 ,0,0,0.,12.0,0.,12.0,0.,12.0,0.,12.0
1979-08-06 18:24:35.200 ,0,0,0.,12.0,0.,12.0,0.,12.0,0.,12.0
1979-08-06 18:24:47.200 ,1,1,0.,12.0,0.,12.0,0.,12.0,0.,12.0
1979-08-06 18:24:59.200 ,1,1,0.,12.0,0.,12.0,0.,12.0,0.,12.0
1979-08-06 18:25:11.200 ,1,0,0.,12.0,0.,12.0,0.,12.0,0.,12.0
1979-08-06 18:25:23.200 ,1,0,0.,12.0,0.,12.0,0.,12.0,0.,12.0
1979-08-06 18:25:35.200 ,2,1,0.,12.0,0.,12.0,0.,12.0,0.,12.0
1979-08-06 18:25:47.200 ,2,1,0.,12.0,0.,12.0,0.,12.0,0.,12.0
1979-08-06 18:25:59.200 ,2,0,0.,12.0,0.,12.0,0.,12.0,0.,12.0
1979-08-06 18:26:11.200 ,2,0,0.,12.0,0.,12.0,0.,12.0,0.,12.0
1979-08-06 18:26:23.200 ,3,1,0.,12.0,0.,12.0,0.,12.0,0.,12.0
1979-08-06 18:26:35.200 ,3,1,0.,12.0,0.,12.0,0.,12.0,0.,12.0
1979-08-06 18:26:47.200 ,3,0,0.,12.0,0.,12.0,0.,12.0,0.,12.0
1979-08-06 18:26:59.200 ,3,0,0.,12.0,0.,12.0,0.,12.0,0.,12.0
1979-08-06 18:27:11.200 ,4,1,0.,12.0,0.,12.0,0.,12.0,0.,12.0
1979-08-06 18:27:23.200 ,4,1,0.,12.0,0.,12.0,0.,12.0,0.,12.0
1979-08-06 18:27:35.200 ,4,0,0.,12.0,0.,12.0,0.,12.0,0.,12.0
1979-08-06 18:27:47.200 ,4,0,0.,12.0,0.,12.0,0.,12.0,0.,12.0
1979-08-06 18:27:59.200 ,5,1,0.,12.0,0.,12.0,0.,12.0,0.,12.0
1979-08-06 18:28:11.200 ,5,1,0.,12.0,0.,12.0,0.,12.0,0.,12.0
1979-08-06 18:28:23.200 ,5,0,0.,12.0,0.,12.0,0.,12.0,0.,12.0
1979-08-06 18:28:35.200 ,5,0,0.,12.0,0.,12.0,0.,12.0,0.,12.0
1979-08-06 18:28:47.200 ,6,1,0.,12.0,0.,12.0,0.,12.0,0.,12.0
1979-08-06 18:28:59.200 ,6,1,0.,12.0,0.,12.0,0.,12.0,0.,12.0
1979-08-06 18:29:11.200 ,6,0,0.,12.0,0.,12.0,0.,12.0,0.,12.0
1979-08-06 18:29:23.200 ,6,0,0.,12.0,0.,12.0,0.,12.0,0.,12.0
1979-08-06 18:29:35.200 ,7,1,0.,12.0,0.,12.0,0.,12.0,0.,12.0
1979-08-06 18:29:47.200 ,7,1,0.,12.0,0.,12.0,0.,12.0,0.,12.0
1979-08-06 18:29:59.200 ,7,0,0.,12.0,0.,12.0,0.,12.0,0.,12.0
1979-08-06 18:30:11.200 ,7,0,0.,12.0,0.,12.0,0.,12.0,0.,12.0
1979-08-06 18:30:23.200 ,7,1,0.,12.0,0.,12.0,0.,12.0,0.,12.0
1979-08-06 18:30:35.200 ,7,1,0.,12.0,0.,12.0,0.,12.0,0.,12.0
1979-08-06 18:30:47.200 ,7,0,0.,12.0,0.,12.0,0.,12.0,0.,12.0
1979-08-06 18:30:59.200 ,7,0,0.,12.0,0.,12.0,0.,12.0,0.,12.0
1979-08-06 18:31:11.200 ,6,1,0.,12.0,0.,12.0,0.,12.0,0.,12.0
1979-08-06 18:31:23.200 ,6,1,0.,12.0,0.,12.0,0.,12.0,0.,12.0
1979-08-06 18:31:35.200 ,6,0,0.,12.0,0.,12.0,0.,12.0,0.,12.0
1979-08-06 18:31:47.200 ,6,0,0.,12.0,0.,12.0,0.,12.0,0.,12.0
1979-08-06 18:31:59.200 ,5,1,0.,12.0,0.,12.0,0.,12.0,0.,12.0
1979-08-06 18:32:11.200 ,5,1,0.,12.0,0.,12.0,0.,12.0,0.,12.0
1979-08-06 18:32:23.200 ,5,0,0.,12.0,0.,12.0,0.,12.0,0.,12.0
1979-08-06 18:32:35.200 ,5,0,0.,12.0,0.,12.0,0.,12.0,0.,12.0
1979-08-06 18:32:47.200 ,4,1,0.,12.0,0.,12.0,0.,12.0,0.,12.0
1979-08-06 18:32:59.200 ,4,1,0.,12.0,0.,12.0,0.,12.0,0.,12.0
1979-08-06 18:33:11.200 ,4,0,0.,12.0,0.,12.0,0.,12.0,0.,12.0
1979-08-06 18:33:23.200 ,4,0,0.,12.0,0.,12.0,0.,12.0,0.,12.0
1979-08-06 18:33:35.200 ,3,1,0.,12.0,0.,12.0,0.,12.0,0.,12.0
1979-08-06 18:33:47.200 ,3,1,0.,12.0,0.,12.0,0.,12.0,0.,12.0
1979-08-06 18:33:59.200 ,3,0,0.,12.0,0.,12.0,0.,12.0,0.,12.0
1979-08-06 18:34:11.200 ,3,0,0.,12.0,0.,12.0,0.,12.0,0.,12.0
1979-08-06 18:34:23.200 ,2,1,0.,12.0,0.,12.0,0.,12.0,0.,12.0
1979-08-06 18:34:35.200 ,2,1,0.,12.0,0.,12.0,0.,12.0,0.,12.0
1979-08-06 18:34:47.200 ,2,0,0.,12.0,0.,12.0,0.,12.0,0.,12.0
1979-08-06 18:34:59.200 ,2,0,0.,12.0,0.,12.0,0.,12.0,0.,12.0
1979-08-06 18:35:11.200 ,1,1,0.,12.0,0.,12.0,0.,12.0,0.,12.0
1979-08-06 18:35:23.200 ,1,1,0.,12.0,0.,12.0,0.,12.0,0.,12.0
1979-08-06 18:35:35.200 ,1,0,0.,12.0,0.,12.0,0.,12.0,0.,12.0
1979-08-06 18:35:47.200 ,1,0,0.,12.0,0.,12.0,0.,12.0,0.,12.0
1979-08-06 18:35:59.200 ,0,1,0.,12.0,0.,12.0,0.,12.0,0.,12.0
1979-08-06 18:36:11.200 ,0,1,0.,12.0,0.,12.0,0.,12.0,0.,12.0
1979-08-06 18:36:23.200 ,0,0,0.,12.0,0.,12.0,0.,12.0,0.,12.0
1979-08-06 18:36:35.200 ,0,0,0.,12.0,0.,12.0,0.,12.0,0.,12.0
1979-08-06 18:36:47.200 ,0,1,0.,12.0,0.,12.0,0.,12.0,0.,12.0
1979-08-06 18:36:59.200 ,0,1,0.,12.0,0.,12.0,0.,12.0,0.,12.0
1979-08-06 18:37:11.200 ,0,0,0.,12.0,0.,12.0,0.,12.0,0.,12.0
1979-08-06 18:37:23.200 ,0,0,0.,12.0,0.,12.0,0.,12.0,0.,12.0
1979-08-06 18:37:35.200 ,1,1,0.,12.0,0.,12.0,0.,12.0,0.,12.0
1979-08-06 18:37:47.200 ,1,1,0.,12.0,0.,12.0,0.,12.0,0.,12.0
1979-08-06 18:37:59.200 ,1,0,0.,12.0,0.,12.0,0.,12.0,0.,12.0
1979-08-06 18:38:11.200 ,1,0,0.,12.0,0.,12.0,0.,12.0,0.,12.0
1979-08-06 18:38:23.200 ,2,1,0.,12.0,0.,12.0,0.,12.0,0.,12.0
1979-08-06 18:38:35.200 ,2,1,0.,12.0,0.,12.0,0.,12.0,0.,12.0
1979-08-06 18:38:47.200 ,2,0,0.,12.0,0.,12.0,0.,12.0,0.,12.0
1979-08-06 18:38:59.200 ,2,0,0.,12.0,0.,12.0,0.,12.0,0.,12.0
1979-08-06 18:39:11.200 ,3,1,0.,12.0,0.,12.0,0.,12.0,0.,12.0
1979-08-06 18:39:23.200 ,3,1,0.,12.0,0.,12.0,0.,12.0,0.,12.0
1979-08-06 18:39:35.200 ,3,0,0.,12.0,0.,12.0,0.,12.0,0.,12.0
1979-08-06 18:39:47.200 ,3,0,0.,12.0,0.,12.0,0.,12.0,0.,12.0
1979-08-06 18:39:59.200 ,4,1,0.,12.0,0.,12.0,0.,12.0,0.,12.0
1979-08-06 18:40:11.200 ,4,1,0.,12.0,0.,12.0,0.,12.0,0.,12.0
1979-08-06 18:40:23.200 ,4,0,0.,12.0,0.,12.0,0.,12.0,0.,12.0
1979-08-06 18:40:35.200 ,4,0,0.,12.0,0.,12.0,0.,12.0,0.,12.0
1979-08-06 18:40:47.200 ,5,1,0.,12.0,0.,12.0,0.,12.0,0.,12.0
1979-08-06 18:40:59.200 ,5,1,0.,12.0,0.,12.0,0.,12.0,0.,12.0
1979-08-06 18:41:11.200 ,5,0,0.,12.0,0.,12.0,0.,12.0,0.,12.0
1979-08-06 18:41:23.200 ,5,0,0.,12.0,0.,12.0,0.,12.0,0.,12.0
1979-08-06 18:41:35.200 ,6,1,0.,12.0,0.,12.0,0.,12.0,0.,12.0
1979-08-06 18:41:47.200 ,6,1,0.,12.0,0.,12.0,0.,12.0,0.,12.0
1979-08-06 18:41:59.200 ,6,0,0.,12.0,0.,12.0,0.,12.0,0.,12.0
1979-08-06 18:42:11.200 ,6,0,0.,12.0,0.,12.0,0.,12.0,0.,12.0
1979-08-06 18:42:23.200 ,7,0,0.,12.0,0.,12.0,0.,12.0,0.,12.0
1979-08-06 18:42:35.200 ,7,0,0.,12.0,0.,12.0,0.,12.0,0.,12.0
1979-08-06 18:42:47.200 ,7,0,0.,12.0,0.,12.0,0.,12.0,0.,12.0
1979-08-06 18:42:59.200 ,7,0,0.,12.0,0.,12.0,0.,12.0,0.,12.0
1979-08-06 18:43:11.200 ,4,1,0.,12.0,0.,12.0,0.,12.0,0.,12.0
1979-08-06 18:43:23.200 ,4,1,0.,12.0,0.,12.0,0.,12.0,0.,12.0
1979-08-06 18:43:35.200 ,0,1,0.,12.0,0.,12.0,0.,12.0,0.,12.0
1979-08-06 18:43:47.200 ,0,1,0.,12.0,0.,12.0,0.,12.0,0.,12.0
1979-08-06 18:43:59.200 ,3,1,0.,12.0,0.,12.0,0.,12.0,0.,12.0
1979-08-06 18:44:11.200 ,3,1,0.,12.0,0.,12.0,0.,12.0,0.,12.0
1979-08-06 18:44:23.200 ,7,1,0.,12.0,0.,12.0,0.,12.0,0.,12.0
1979-08-06 18:44:35.200 ,7,1,0.,12.0,0.,12.0,0.,12.0,0.,12.0
1979-08-06 18:44:47.200 ,4,1,0.,12.0,0.,12.0,0.,12.0,0.,12.0
1979-08-06 18:44:59.200 ,4,1,0.,12.0,0.,12.0,0.,12.0,0.,12.0
1979-08-06 18:45:11.200 ,0,1,0.,12.0,0.,12.0,0.,12.0,0.,12.0
1979-08-06 18:45:23.200 ,0,1,0.,12.0,0.,12.0,0.,12.0,0.,12.0
1979-08-06 18:45:35.200 ,3,1,0.,12.0,0.,12.0,0.,12.0,0.,12.0
1979-08-06 18:45:47.200 ,3,1,0.,12.0,0.,12.0,0.,12.0,0.,12.0
1979-08-06 18:45:59.200 ,7,1,0.,12.0,0.,12.0,0.,12.0,0.,12.0
1979-08-06 18:46:11.200 ,7,1,0.,12.0,0.,12.0,0.,12.0,0.,12.0
1979-08-06 18:46:23.200 ,4,1,0.,12.0,0.,12.0,0.,12.0,0.,12.0
1979-08-06 18:46:35.200 ,4,1,0.,12.0,0.,12.0,0.,12.0,0.,12.0
1979-08-06 18:46:47.200 ,0,1,0.,12.0,0.,12.0,0.,12.0,0.,12.0
1979-08-06 18:46:59.200 ,0,1,0.,12.0,0.,12.0,0.,12.0,0.,12.0
1979-08-06 18:47:11.200 ,3,1,0.,12.0,0.,12.0,0.,12.0,0.,12.0
1979-08-06 18:47:23.200 ,3,1,0.,12.0,0.,12.0,0.,12.0,0.,12.0
1979-08-06 18:47:35.200 ,7,1,0.,12.0,0.,12.0,0.,12.0,0.,12.0
1979-08-06 18:47:47.200 ,7,1,0.,12.0,0.,12.0,0.,12.0,0.,12.0
1979-08-06 18:47:59.200 ,4,1,0.,12.0,0.,12.0,0.,12.0,0.,12.0
1979-08-06 18:48:11.200 ,4,1,0.,12.0,0.,12.0,0.,12.0,0.,12.0
1979-08-06 18:48:23.200 ,0,1,0.,12.0,0.,12.0,0.,12.0,0.,12.0
1979-08-06 18:48:35.200 ,0,1,0.,12.0,0.,12.0,0.,12.0,0.,12.0
1979-08-06 18:48:47.200 ,3,1,0.,12.0,0.,12.0,0.,12.0,0.,12.0
1979-08-06 18:48:59.200 ,3,1,0.,12.0,0.,12.0,0.,12.0,0.,12.0
1979-08-06 18:49:11.200 ,7,1,0.,12.0,0.,12.0,0.,12.0,0.,12.0
1979-08-06 18:49:23.200 ,7,1,0.,12.0,0.,12.0,0.,12.0,0.,12.0
1979-08-06 18:49:35.200 ,4,1,0.,12.0,0.,12.0,0.,12.0,0.,12.0
1979-08-06 18:49:47.200 ,4,1,0.,12.0,0.,12.0,0.,12.0,0.,12.0
1979-08-06 18:49:59.200 ,0,1,0.,12.0,0.,12.0,0.,12.0,0.,12.0
1979-08-06 18:50:11.200 ,0,1,0.,12.0,0.,12.0,0.,12.0,0.,12.0
1979-08-06 18:50:23.200 ,3,1,0.,12.0,0.,12.0,0.,12.0,0.,12.0
1979-08-06 18:50:35.200 ,3,1,0.,12.0,0.,12.0,0.,12.0,0.,12.0
1979-08-06 18:50:47.200 ,7,1,0.,12.0,0.,12.0,0.,12.0,0.,12.0
1979-08-06 18:50:59.200 ,7,1,0.,12.0,0.,12.0,0.,12.0,0.,12.0
1979-08-06 18:51:11.200 ,4,1,0.,12.0,0.,12.0,0.,12.0,0.,12.0
1979-08-06 18:51:23.200 ,4,1,0.,12.0,0.,12.0,0.,12.0,0.,12.0
1979-08-06 18:51:35.200 ,0,1,0.,12.0,0.,12.0,0.,12.0,0.,12.0
1979-08-06 18:51:47.200 ,0,1,0.,12.0,0.,12.0,0.,12.0,0.,12.0
1979-08-06 18:51:59.200 ,3,1,0.,12.0,0.,12.0,0.,12.0,0.,12.0
1979-08-06 18:52:11.200 ,3,1,0.,12.0,0.,12.0,0.,12.0,0.,12.0
1979-08-06 18:52:23.200 ,7,1,0.,12.0,0.,12.0,0.,12.0,0.,12.0
1979-08-06 18:52:35.200 ,7,1,0.,12.0,0.,12.0,0.,12.0,0.,12.0
1979-08-06 18:52:47.200 ,4,1,0.,12.0,0.,12.0,0.,12.0,0.,12.0
1979-08-06 18:52:59.200 ,4,1,0.,12.0,0.,12.0,0.,12.0,0.,12.0
1979-08-06 18:53:11.200 ,0,1,0.,12.0,0.,12.0,0.,12.0,0.,12.0
1979-08-06 18:53:23.200 ,0,1,0.,12.0,0.,12.0,0.,12.0,0.,12.0
1979-08-06 18:53:35.200 ,0,0,0.,12.0,0.,12.0,0.,12.0,0.,12.0
1979-08-06 18:53:47.200 ,0,0,0.,12.0,0.,12.0,0.,12.0,0.,12.0
1979-08-06 18:53:59.200 ,0,0,0.,12.0,0.,12.0,0.,12.0,0.,12.0
1979-08-06 18:54:11.200 ,0,0,0.,12.0,0.,12.0,0.,12.0,0.,12.0
1979-08-06 18:54:23.200 ,5,1,0.,12.0,0.,12.0,0.,12.0,0.,12.0
1979-08-06 18:54:35.200 ,5,1,0.,12.0,0.,12.0,0.,12.0,0.,12.0
1979-08-06 18:54:47.200 ,5,0,0.,12.0,0.,12.0,0.,12.0,0.,12.0
1979-08-06 18:54:59.200 ,5,0,0.,12.0,0.,12.0,0.,12.0,0.,12.0
1979-08-06 18:55:11.200 ,4,1,0.,12.0,0.,12.0,0.,12.0,0.,12.0
1979-08-06 18:55:23.200 ,4,1,0.,12.0,0.,12.0,0.,12.0,0.,12.0
1979-08-06 18:55:35.200 ,4,0,0.,12.0,0.,12.0,0.,12.0,0.,12.0
1979-08-06 18:55:47.200 ,4,0,0.,12.0,0.,12.0,0.,12.0,0.,12.0
1979-08-06 18:55:59.200 ,3,1,0.,12.0,0.,12.0,0.,12.0,0.,12.0
1979-08-06 18:56:11.200 ,3,1,0.,12.0,0.,12.0,0.,12.0,0.,12.0
1979-08-06 18:56:23.200 ,3,0,0.,12.0,0.,12.0,0.,12.0,0.,12.0
1979-08-06 18:56:35.200 ,3,0,0.,12.0,0.,12.0,0.,12.0,0.,12.0
1979-08-06 18:56:47.200 ,2,1,0.,12.0,0.,12.0,0.,12.0,0.,12.0
1979-08-06 18:56:59.200 ,2,1,0.,12.0,0.,12.0,0.,12.0,0.,12.0
1979-08-06 18:57:11.200 ,2,0,0.,12.0,0.,12.0,0.,12.0,0.,12.0
1979-08-06 18:57:23.200 ,2,0,0.,12.0,0.,12.0,0.,12.0,0.,12.0
1979-08-06 18:57:35.200 ,1,1,0.,12.0,0.,12.0,0.,12.0,0.,12.0
1979-08-06 18:57:47.200 ,1,1,0.,12.0,0.,12.0,0.,12.0,0.,12.0
1979-08-06 18:57:59.200 ,1,0,0.,12.0,0.,12.0,0.,12.0,0.,12.0
1979-08-06 18:58:11.200 ,1,0,0.,12.0,0.,12.0,0.,12.0,0.,12.0
1979-08-06 18:58:23.200 ,0,1,0.,12.0,0.,12.0,0.,12.0,0.,12.0
1979-08-06 18:58:35.200 ,0,1,0.,12.0,0.,12.0,0.,12.0,0.,12.0
1979-08-06 18:58:47.200 ,0,0,0.,12.0,0.,12.0,0.,12.0,0.,12.0
1979-08-06 18:58:59.200 ,0,0,0.,12.0,0.,12.0,0.,12.0,0.,12.0
1979-08-06 18:59:11.200 ,0,1,0.,12.0,0.,12.0,0.,12.0,0.,12.0
1979-08-06 18:59:23.200 ,0,1,0.,12.0,0.,12.0,0.,12.0,0.,12.0
1979-08-06 18:59:35.200 ,0,0,0.,12.0,0.,12.0,0.,12.0,0.,12.0
1979-08-06 18:59:47.200 ,0,0,0.,12.0,0.,12.0,0.,12.0,0.,12.0
1979-08-06 18:59:59.200 ,1,1,0.,12.0,0.,12.0,0.,12.0,0.,12.0
1979-08-06 19:00:11.200 ,1,1,0.,12.0,0.,12.0,0.,12.0,0.,12.0
1979-08-06 19:00:23.200 ,1,0,0.,12.0,0.,12.0,0.,12.0,0.,12.0
1979-08-06 19:00:35.200 ,1,0,0.,12.0,0.,12.0,0.,12.0,0.,12.0
1979-08-06 19:00:47.200 ,2,1,0.,12.0,0.,12.0,0.,12.0,0.,12.0
1979-08-06 19:00:59.200 ,2,1,0.,12.0,0.,12.0,0.,12.0,0.,12.0
1979-08-06 19:01:11.200 ,2,0,0.,12.0,0.,12.0,0.,12.0,0.,12.0
1979-08-06 19:01:23.200 ,2,0,0.,12.0,0.,12.0,0.,12.0,0.,12.0
1979-08-06 19:01:35.200 ,3,1,0.,12.0,0.,12.0,0.,12.0,0.,12.0
1979-08-06 19:01:47.200 ,3,1,0.,12.0,0.,12.0,0.,12.0,0.,12.0
1979-08-06 19:01:59.200 ,3,0,0.,12.0,0.,12.0,0.,12.0,0.,12.0
1979-08-06 19:02:11.200 ,3,0,0.,12.0,0.,12.0,0.,12.0,0.,12.0
1979-08-06 19:02:23.200 ,4,1,0.,12.0,0.,12.0,0.,12.0,0.,12.0
1979-08-06 19:02:35.200 ,4,1,0.,12.0,0.,12.0,0.,12.0,0.,12.0
1979-08-06 19:02:47.200 ,4,0,0.,12.0,0.,12.0,0.,12.0,0.,12.0
1979-08-06 19:02:59.200 ,4,0,0.,12.0,0.,12.0,0.,12.0,0.,12.0
1979-08-06 19:03:11.200 ,5,1,0.,12.0,0.,12.0,0.,12.0,0.,12.0
1979-08-06 19:03:23.200 ,5,1,0.,12.0,0.,12.0,0.,12.0,0.,12.0
1979-08-06 19:03:35.200 ,5,0,0.,12.0,0.,12.0,0.,12.0,0.,12.0
1979-08-06 19:03:47.200 ,5,0,0.,12.0,0.,12.0,0.,12.0,0.,12.0
1979-08-06 19:03:59.200 ,6,1,0.,12.0,0.,12.0,0.,12.0,0.,12.0
1979-08-06 19:04:11.200 ,6,1,0.,12.0,0.,12.0,0.,12.0,0.,12.0
1979-08-06 19:04:23.200 ,6,0,0.,12.0,0.,12.0,0.,12.0,0.,12.0
1979-08-06 19:04:35.200 ,6,0,0.,12.0,0.,12.0,0.,12.0,0.,12.0
1979-08-06 19:04:47.200 ,7,1,0.,12.0,0.,12.0,0.,12.0,0.,12.0
1979-08-06 19:04:59.200 ,7,1,0.,12.0,0.,12.0,0.,12.0,0.,12.0
1979-08-06 19:05:11.200 ,7,0,0.,12.0,0.,12.0,0.,12.0,0.,12.0
1979-08-06 19:05:23.200 ,7,0,0.,12.0,0.,12.0,0.,12.0,0.,12.0
1979-08-06 19:05:35.200 ,7,1,0.,12.0,0.,12.0,0.,12.0,0.,12.0
1979-08-06 19:05:47.200 ,7,1,0.,12.0,0.,12.0,0.,12.0,0.,12.0
1979-08-06 19:05:59.200 ,7,0,0.,12.0,0.,12.0,0.,12.0,0.,12.0
1979-08-06 19:06:11.200 ,7,0,0.,12.0,0.,12.0,0.,12.0,0.,12.0
1979-08-06 19:06:23.200 ,6,1,0.,12.0,0.,12.0,0.,12.0,0.,12.0
1979-08-06 19:06:35.200 ,6,1,0.,12.0,0.,12.0,0.,12.0,0.,12.0
1979-08-06 19:06:47.200 ,6,0,0.,12.0,0.,12.0,0.,12.0,0.,12.0
1979-08-06 19:06:59.200 ,6,0,0.,12.0,0.,12.0,0.,12.0,0.,12.0
1979-08-06 19:07:11.200 ,5,1,0.,12.0,0.,12.0,0.,12.0,0.,12.0
1979-08-06 19:07:23.200 ,5,1,0.,12.0,0.,12.0,0.,12.0,0.,12.0
1979-08-06 19:07:35.200 ,5,0,0.,12.0,0.,12.0,0.,12.0,0.,12.0
1979-08-06 19:07:47.200 ,5,0,0.,12.0,0.,12.0,0.,12.0,0.,12.0
1979-08-06 19:07:59.200 ,4,1,0.,12.0,0.,12.0,0.,12.0,0.,12.0
1979-08-06 19:08:11.200 ,4,1,0.,12.0,0.,12.0,0.,12.0,0.,12.0
1979-08-06 19:08:23.200 ,4,0,0.,12.0,0.,12.0,0.,12.0,0.,12.0
1979-08-06 19:08:35.200 ,4,0,0.,12.0,0.,12.0,0.,12.0,0.,12.0
1979-08-06 19:08:47.200 ,3,1,0.,12.0,0.,12.0,0.,12.0,0.,12.0
1979-08-06 19:08:59.200 ,3,1,0.,12.0,0.,12.0,0.,12.0,0.,12.0
1979-08-06 19:09:11.200 ,3,0,0.,12.0,0.,12.0,0.,12.0,0.,12.0
1979-08-06 19:09:23.200 ,3,0,0.,12.0,0.,12.0,0.,12.0,0.,12.0
1979-08-06 19:09:35.200 ,2,1,0.,12.0,0.,12.0,0.,12.0,0.,12.0
1979-08-06 19:09:47.200 ,2,1,0.,12.0,0.,12.0,0.,12.0,0.,12.0
1979-08-06 19:09:59.200 ,2,0,0.,12.0,0.,12.0,0.,12.0,0.,12.0
1979-08-06 19:10:11.200 ,2,0,0.,12.0,0.,12.0,0.,12.0,0.,12.0
1979-08-06 19:10:23.200 ,1,1,0.,12.0,0.,12.0,0.,12.0,0.,12.0
1979-08-06 19:10:35.200 ,1,1,0.,12.0,0.,12.0,0.,12.0,0.,12.0
1979-08-06 19:10:47.200 ,1,0,0.,12.0,0.,12.0,0.,12.0,0.,12.0
1979-08-06 19:10:59.200 ,1,0,0.,12.0,0.,12.0,0.,12.0,0.,12.0
1979-08-06 19:11:11.200 ,0,1,0.,12.0,0.,12.0,0.,12.0,0.,12.0
1979-08-06 19:11:23.200 ,0,1,0.,12.0,0.,12.0,0.,12.0,0.,12.0
1979-08-06 19:11:35.200 ,0,0,0.,12.0,0.,12.0,0.,12.0,0.,12.0
1979-08-06 19:11:47.200 ,0,0,0.,12.0,0.,12.0,0.,12.0,0.,12.0
1979-08-06 19:11:59.200 ,0,1,0.,12.0,0.,12.0,0.,12.0,0.,12.0
1979-08-06 19:12:11.200 ,0,1,0.,12.0,0.,12.0,0.,12.0,0.,12.0
1979-08-06 19:12:23.200 ,0,0,0.,12.0,0.,12.0,0.,12.0,0.,12.0
1979-08-06 19:12:35.200 ,0,0,0.,12.0,0.,12.0,0.,12.0,0.,12.0
1979-08-06 19:12:47.200 ,1,1,0.,12.0,0.,12.0,0.,12.0,0.,12.0
1979-08-06 19:12:59.200 ,1,1,0.,12.0,0.,12.0,0.,12.0,0.,12.0
1979-08-06 19:13:11.200 ,1,0,0.,12.0,0.,12.0,0.,12.0,0.,12.0
1979-08-06 19:13:23.200 ,1,0,0.,12.0,0.,12.0,0.,12.0,0.,12.0
1979-08-06 19:13:35.200 ,2,1,0.,12.0,0.,12.0,0.,12.0,0.,12.0
1979-08-06 19:13:47.200 ,2,1,0.,12.0,0.,12.0,0.,12.0,0.,12.0
1979-08-06 19:13:59.200 ,2,0,0.,12.0,0.,12.0,0.,12.0,0.,12.0
1979-08-06 19:14:11.200 ,2,0,0.,12.0,0.,12.0,0.,12.0,0.,12.0
1979-08-06 19:14:23.200 ,3,1,0.,12.0,0.,12.0,0.,12.0,0.,12.0
1979-08-06 19:14:35.200 ,3,1,0.,12.0,0.,12.0,0.,12.0,0.,12.0
1979-08-06 19:14:47.200 ,3,0,0.,12.0,0.,12.0,0.,12.0,0.,12.0
1979-08-06 19:14:59.200 ,3,0,0.,12.0,0.,12.0,0.,12.0,0.,12.0
1979-08-06 19:15:11.200 ,4,1,0.,12.0,0.,12.0,0.,12.0,0.,12.0
1979-08-06 19:15:23.200 ,4,1,0.,12.0,0.,12.0,0.,12.0,0.,12.0
1979-08-06 19:15:35.200 ,4,0,0.,12.0,0.,12.0,0.,12.0,0.,12.0
1979-08-06 19:15:47.200 ,4,0,0.,12.0,0.,12.0,0.,12.0,0.,12.0
1979-08-06 19:15:59.200 ,5,1,0.,12.0,0.,12.0,0.,12.0,0.,12.0
1979-08-06 19:16:11.200 ,5,1,0.,12.0,0.,12.0,0.,12.0,0.,12.0
1979-08-06 19:16:23.200 ,5,0,0.,12.0,0.,12.0,0.,12.0,0.,12.0
1979-08-06 19:16:35.200 ,5,0,0.,12.0,0.,12.0,0.,12.0,0.,12.0
1979-08-06 19:16:47.200 ,6,1,0.,12.0,0.,12.0,0.,12.0,0.,12.0
1979-08-06 19:16:59.200 ,6,1,0.,12.0,0.,12.0,0.,12.0,0.,12.0
1979-08-06 19:17:11.200 ,6,0,0.,12.0,0.,12.0,0.,12.0,0.,12.0